Location: Coffee Ditch
(40.9640°N, 122.7500°W)
Time: 15:22:25
(UTC+00:00)

Cosmos 1954 Rocket - Pass Details

Date: 08 September 2024
Orbit: 748 x 779 km, 74.0° (Epoch: 08 October)

Event Time Altitude Azimuth Distance (km) Brightness Sun altitude
Exits shadow 12:56:03 - 212° (SSW) 2,814 6.5 -9.9°
Reaches altitude 10° 12:57:29 10° 215° (SW) 2,264 6.0 -9.7°
Maximum altitude 13:02:30 54° 293° (WNW) 910 4.1 -8.7°
Drops below altitude 10° 13:07:36 10° 11° (N) 2,295 6.8 -7.8°
Sets 13:10:03 0° 16° (NNE) 3,229 7.7 -7.4°
